Location: Ravensburg
(47.7866°N, 9.6124°E)
Time: 06:53:41
(UTC+02:00)

AO-73 - Pass Details

Date: 24 March 2026
Orbit: 514 x 567 km, 97.8° (Epoch: 17 April)

Event Time Altitude Azimuth Distance (km) Brightness Sun altitude
Rises 04:02:42 0° 16° (NNE) 2,650 ? -22.3°
Reaches altitude 10° 04:04:50 10° 19° (NNE) 1,754 ? -22.0°
Maximum altitude 04:08:35 64° 102° (ESE) 576 ? -21.5°
Enters shadow 04:09:36 43° 163° (SSE) 731 ? -21.3°
